Waarnemingen

Advertentie
Mijn weer
Huelva, Spanje (8383): temperatuur & dauwpunt: 09.11.2018 20:00:00 - 15.11.2018 20:00:00 (CET)Huelva, Spanje (8383): windsnelheid: 09.11.2018 20:00:00 - 15.11.2018 20:00:00 (CET)Huelva, Spanje (8383): windrichting: 09.11.2018 20:00:00 - 15.11.2018 20:00:00 (CET)Huelva, Spanje (8383): luchtdruk: 09.11.2018 20:00:00 - 15.11.2018 20:00:00 (CET)Huelva, Spanje (8383): zicht: 09.11.2018 20:00:00 - 15.11.2018 20:00:00 (CET)Huelva, Spanje (8383): neerslag: 09.11.2018 20:00:00 - 15.11.2018 20:00:00 (CET)
Datum & Tijd tt [°C] td [°C] ff [km/u] ff [kn] dd ppp [hPa] vv [km] rr [mm]
15.11.2018 20:00:00 15,9 14,4 2 1 ZZO 1015,3 8 0,0
15.11.2018 19:00:00 17,1 14,4 5 3 ZZW 1015,0 13 -
15.11.2018 18:00:00 18,7 14,0 8 4 ZZW 1014,7 19 0,0
15.11.2018 17:00:00 20,8 13,5 13 7 Z 1014,5 20 0,0
15.11.2018 16:00:00 21,2 14,1 13 7 ZZO 1014,3 20 -
15.11.2018 15:00:00 20,4 14,7 15 8 ZZO 1014,7 17 0,0
15.11.2018 14:00:00 21,2 15,3 16 9 Z 1015,1 17 0,0
15.11.2018 13:00:00 20,7 14,6 16 9 Z 1015,2 10 -
15.11.2018 12:00:00 19,5 14,9 15 8 ZZO 1016,0 18 0,0
15.11.2018 11:00:00 18,5 15,2 11 6 OZO 1015,7 16 0,0
15.11.2018 10:00:00 15,2 13,2 8 4 ONO 1015,4 9 -
15.11.2018 09:00:00 13,0 12,2 9 5 NO 1014,9 12 0,0
15.11.2018 08:00:00 11,9 11,3 8 4 NO 1014,3 10 0,0
15.11.2018 07:00:00 12,2 11,6 8 4 NO 1013,3 10 -
15.11.2018 06:00:00 12,1 11,5 8 4 NO 1013,3 12 0,0
15.11.2018 05:00:00 12,3 11,8 8 4 NNO 1013,4 10 0,0
15.11.2018 04:00:00 12,4 11,8 8 4 ONO 1013,5 6 -
15.11.2018 03:00:00 12,9 12,3 4 2 NO 1013,7 8 0,0
15.11.2018 02:00:00 13,2 12,6 8 4 NO 1013,7 10 0,0
15.11.2018 01:00:00 13,6 12,5 8 4 ONO 1014,2 15 -
15.11.2018 00:00:00 14,4 12,9 8 4 NNO 1014,6 15 0,0
14.11.2018 23:00:00 15,3 13,5 8 4 NNO 1015,1 16 0,0
14.11.2018 22:00:00 15,4 13,6 4 2 NNO 1015,3 15 -
14.11.2018 21:00:00 16,8 13,9 2 1 ZO 1015,1 16 0,0
14.11.2018 20:00:00 18,1 14,4 2 1 Z 1015,2 18 0,0
14.11.2018 19:00:00 19,6 14,4 4 2 O 1015,0 13 -
14.11.2018 18:00:00 20,7 14,6 4 2 ONO 1014,7 19 0,0
14.11.2018 17:00:00 22,3 13,4 11 6 O 1014,9 20 0,0
14.11.2018 16:00:00 22,7 12,9 13 7 OZO 1015,0 20 -
14.11.2018 15:00:00 22,7 12,9 11 6 O 1015,2 20 0,0
14.11.2018 14:00:00 22,2 13,0 15 8 O 1015,9 19 0,0
14.11.2018 13:00:00 21,8 12,9 16 9 O 1016,7 15 -
14.11.2018 12:00:00 20,7 12,9 16 9 O 1017,5 19 0,0
14.11.2018 11:00:00 18,9 13,1 11 6 ONO 1018,1 20 0,0
14.11.2018 10:00:00 17,0 13,5 11 6 ONO 1018,4 11 -
14.11.2018 09:00:00 14,8 13,3 5 3 NNO 1018,6 13 0,0
14.11.2018 08:00:00 13,4 12,6 8 4 NO 1018,3 14 0,0
14.11.2018 07:00:00 13,1 12,3 9 5 NO 1018,1 18 -
14.11.2018 06:00:00 12,8 12,0 5 3 NO 1018,5 16 0,0
14.11.2018 05:00:00 12,8 11,9 9 5 NO 1018,7 17 0,0
14.11.2018 04:00:00 12,7 11,8 8 4 NO 1019,1 16 -
14.11.2018 03:00:00 13,1 12,2 5 3 NO 1019,7 20 0,0
14.11.2018 02:00:00 12,9 12,4 8 4 NNO 1020,2 11 0,0
14.11.2018 01:00:00 13,2 12,6 5 3 NNO 1020,6 10 -
14.11.2018 00:00:00 13,6 12,3 2 1 NO 1020,7 17 0,0
13.11.2018 23:00:00 14,1 12,8 4 2 N 1020,7 14 0,0
13.11.2018 22:00:00 14,6 13,1 5 3 NNO 1020,7 13 -
13.11.2018 21:00:00 15,1 12,8 9 5 NO 1020,8 16 0,0
13.11.2018 20:00:00 15,8 13,1 4 2 Z 1020,6 14 0,0
13.11.2018 19:00:00 17,4 13,1 4 2 ZZO 1020,4 11 -
13.11.2018 18:00:00 19,5 13,2 5 3 ZW 1020,0 13 0,0
13.11.2018 17:00:00 20,8 12,7 4 2 ZZO 1019,7 20 0,0
13.11.2018 16:00:00 21,7 12,8 5 3 W 1019,5 20 -
13.11.2018 15:00:00 20,9 12,8 8 4 WNW 1019,8 20 0,0
13.11.2018 14:00:00 19,4 13,6 8 4 N 1020,4 20 0,0
13.11.2018 13:00:00 18,9 13,3 9 5 ONO 1021,1 15 -
13.11.2018 12:00:00 18,4 13,0 8 4 ONO 1021,6 20 0,0
13.11.2018 11:00:00 17,6 13,9 9 5 NO 1021,5 20 0,0
13.11.2018 10:00:00 14,1 12,7 5 3 N 1021,3 20 -
13.11.2018 09:00:00 11,8 11,3 5 3 NNW 1020,9 20 0,0
13.11.2018 08:00:00 11,4 11,1 4 2 NNO 1020,4 18 0,0
13.11.2018 07:00:00 11,5 11,3 5 3 N 1020,0 20 -
13.11.2018 06:00:00 11,5 11,2 4 2 N 1020,1 20 0,0
13.11.2018 05:00:00 11,8 11,3 8 4 N 1019,7 20 0,0
13.11.2018 04:00:00 12,2 11,9 9 5 NNW 1020,0 20 -
13.11.2018 03:00:00 12,4 11,6 2 1 NO 1019,9 20 0,0
13.11.2018 02:00:00 13,1 12,3 8 4 NW 1019,8 20 0,0
13.11.2018 01:00:00 13,8 13,3 4 2 NW 1019,9 19 -
13.11.2018 00:00:00 13,9 13,3 4 2 Z 1019,7 20 0,0
12.11.2018 23:00:00 14,0 13,4 5 3 N 1019,4 20 0,0
12.11.2018 22:00:00 14,0 13,4 4 2 NNO 1018,9 20 -
12.11.2018 21:00:00 14,6 13,1 9 5 N 1018,4 20 0,0
12.11.2018 20:00:00 14,9 13,8 2 1 N 1018,4 20 0,0
12.11.2018 19:00:00 15,3 13,3 5 3 OZO 1017,7 20 -
12.11.2018 18:00:00 15,8 13,6 8 4 OZO 1017,1 20 0,0
12.11.2018 17:00:00 16,1 13,6 8 4 ZO 1016,6 20 0,0
12.11.2018 16:00:00 16,2 13,9 9 5 ZO 1015,9 20 -
12.11.2018 15:00:00 16,2 14,0 15 8 ZO 1015,7 20 0,0
12.11.2018 14:00:00 15,5 13,5 16 9 ZZO 1015,8 20 0,0
12.11.2018 13:00:00 15,1 14,1 15 8 ZZO 1015,9 18 -
12.11.2018 12:00:00 14,5 13,9 8 4 ZZO 1015,9 13 0,0
12.11.2018 11:00:00 14,7 13,7 16 9 Z 1015,8 20 0,0
12.11.2018 10:00:00 14,7 14,2 11 6 ZO 1014,8 15 -
12.11.2018 09:00:00 14,8 14,6 11 6 ZO 1013,6 20 0,2
12.11.2018 08:00:00 14,7 14,7 9 5 O 1012,5 19 0,0
12.11.2018 07:00:00 14,6 14,6 4 2 ONO 1012,6 18 -
12.11.2018 06:00:00 14,8 14,5 4 2 O 1012,7 - 0,8
12.11.2018 05:00:00 14,6 14,4 4 2 O 1011,7 20 2,0
12.11.2018 04:00:00 14,8 14,6 8 4 ZO 1012,2 2,1 -
12.11.2018 03:00:00 15,0 14,8 9 5 ZZO 1012,3 18 0,2
12.11.2018 02:00:00 14,4 14,1 13 7 ZO 1012,1 10 1,0
12.11.2018 01:00:00 14,7 14,1 11 6 ZZO 1012,2 4,4 -
12.11.2018 00:00:00 16,4 15,8 18 10 Z 1012,4 8 0,2
11.11.2018 23:00:00 16,5 15,5 22 12 Z 1012,4 10 0,6
11.11.2018 22:00:00 16,5 14,9 11 6 ZZW 1012,7 19 -
11.11.2018 21:00:00 16,7 15,1 11 6 ZZW 1012,5 20 0,0
11.11.2018 20:00:00 17,0 15,0 13 7 ZZW 1012,6 20 0,0
11.11.2018 19:00:00 17,2 15,0 15 8 ZZW 1012,4 20 -
11.11.2018 18:00:00 18,4 15,1 18 10 ZZW 1012,6 20 0,0
11.11.2018 17:00:00 20,1 15,1 18 10 ZZW 1012,3 20 0,0
11.11.2018 16:00:00 20,4 15,4 22 12 ZZW 1012,6 20 -
11.11.2018 15:00:00 20,5 15,7 24 13 ZZW 1012,9 20 0,0
11.11.2018 14:00:00 21,4 15,7 24 13 Z 1013,5 20 0,0
11.11.2018 13:00:00 21,2 16,8 26 14 Z 1014,4 20 -
11.11.2018 12:00:00 20,2 17,4 21 11 Z 1015,4 20 0,0
11.11.2018 11:00:00 19,1 17,8 16 9 Z 1016,0 20 0,0
11.11.2018 10:00:00 17,6 17,1 8 4 Z 1016,6 11 -
11.11.2018 09:00:00 16,7 16,5 4 2 Z 1016,5 15 0,0
11.11.2018 08:00:00 16,0 16,0 2 1 O 1016,3 8 0,0
11.11.2018 07:00:00 15,9 15,7 4 2 ONO 1016,4 4,7 -
11.11.2018 06:00:00 16,4 16,2 2 1 ZZW 1016,6 11 0,0
11.11.2018 05:00:00 16,0 15,8 4 2 ZZW 1016,7 2,6 0,0
11.11.2018 04:00:00 15,9 15,6 5 3 ZZW 1017,0 3,8 -
11.11.2018 03:00:00 16,2 15,7 5 3 ZW 1017,2 6 0,0
11.11.2018 02:00:00 16,7 16,2 8 4 ZZW 1017,8 6 0,2
11.11.2018 01:00:00 16,9 16,3 15 8 ZW 1018,4 - -
11.11.2018 00:00:00 17,5 16,0 11 6 ZW 1018,5 19 0,0
10.11.2018 23:00:00 17,4 15,9 11 6 ZW 1018,6 19 0,0
10.11.2018 22:00:00 17,6 15,6 11 6 ZW 1018,6 0,9 -
10.11.2018 21:00:00 17,6 15,6 15 8 ZW 1018,5 0,9 0,0
10.11.2018 20:00:00 17,8 15,6 21 11 WZW 1018,4 1,1 0,0
10.11.2018 19:00:00 17,8 15,4 18 10 WZW 1018,2 1,0 -
10.11.2018 18:00:00 18,1 15,2 21 11 ZW 1018,2 1,0 0,0
10.11.2018 17:00:00 18,5 14,8 21 11 ZW 1018,3 1,7 0,0
10.11.2018 16:00:00 18,9 14,8 15 8 ZW 1018,2 0,6 -
10.11.2018 15:00:00 18,9 14,8 18 10 WZW 1018,7 0,7 0,0
10.11.2018 14:00:00 18,7 14,2 16 9 ZW 1019,1 0,9 0,0
10.11.2018 13:00:00 20,1 14,5 18 10 ZW 1019,9 0,9 -
10.11.2018 12:00:00 19,3 15,0 9 5 ZW 1020,7 19 0,0
10.11.2018 11:00:00 16,8 15,0 4 2 ZO 1020,9 18 0,0
10.11.2018 10:00:00 13,7 13,1 8 4 ONO 1021,1 14 -
10.11.2018 09:00:00 12,1 11,6 5 3 NO 1020,8 13 0,0
10.11.2018 08:00:00 11,5 11,0 4 2 NO 1020,3 13 0,0
10.11.2018 07:00:00 11,5 11,0 2 1 ONO 1020,5 14 -
10.11.2018 06:00:00 10,8 10,3 4 2 NO 1020,5 16 0,0
10.11.2018 05:00:00 10,4 9,9 8 4 NO 1020,9 15 0,0
10.11.2018 04:00:00 10,4 9,8 4 2 NO 1021,3 14 -
10.11.2018 03:00:00 10,7 9,9 5 3 NNO 1021,5 15 0,0
10.11.2018 02:00:00 11,0 10,1 4 2 ONO 1021,9 14 0,0
10.11.2018 01:00:00 11,8 10,4 8 4 NO 1022,5 18 -
10.11.2018 00:00:00 13,0 10,5 4 2 NO 1022,6 20 0,0
09.11.2018 23:00:00 13,8 10,8 11 6 WNW 1023,0 19 0,0
09.11.2018 22:00:00 14,1 10,9 13 7 W 1023,2 15 -
09.11.2018 21:00:00 14,5 10,9 15 8 W 1023,1 19 0,0
09.11.2018 20:00:00 15,4 11,8 11 6 WZW 1022,8 11 0,0

tt = temperatuur
td = dauwpunt
ff = windsnelheid
dd = windrichting
ppp = luchtdruk
vv = zicht
rr = neerslag

Weerstations in de omgeving